Temp
-9 -10 -9 -9 -9 -8 -8 -7 -7 -7 -7 -6 -6 -6 -6 -6 -6 -6 -6 -6 -6 -7 -6 -7 -7 -7 -7 -7 -7 -7 -7 -7 -7 -7 -7 -7 -7 -8 -7 -7 -8 -8 -8 -8 -8
-9 -10 -10 -9 -8 -9 -8 -8 -8 -7 -7 -7 -6 -6 -6 -6 -6 -6 -6 -6 -7 -7 -7 -7 -7 -7 -7 -7 -7 -7 -7 -7 -7 -7 -7 -7 -7 -7 -7 -7 -8 -8 -8 -8 -8
-11 -10 -10 -10 -9 -9 -8 -8 -8 -8 -7 -7 -7 -7 -6 -6 -6 -6 -6 -6 -6 -6 -7 -7 -7 -7 -7 -7 -7 -7 -7 -7 -7 -7 -8 -7 -7 -7 -7 -7 -8 -8 -8 -8 -8
-11 -10 -10 -10 -10 -8 -9 -9 -8 -8 -8 -8 -7 -7 -7 -6 -7 -6 -6 -6 -7 -7 -7 -7 -7 -7 -7 -7 -7 -8 -7 -7 -7 -7 -8 -8 -7 -7 -7 -7 -8 -8 -8 -8 -8
-11 -10 -10 -10 -10 -10 -9 -9 -9 -9 -9 -9 -8 -8 -7 -7 -7 -7 -7 -7 -7 -7 -7 -7 -7 -7 -7 -8 -8 -8 -7 -7 -7 -7 -7 -8 -8 -7 -7 -7 -8 -8 -8 -8 -8
-12 -10 -10 -10 -10 -10 -10 -10 -9 -9 -9 -9 -9 -8 -8 -8 -7 -7 -7 -7 -7 -7 -7 -7 -7 -7 -8 -7 -8 -8 -8 -8 -7 -7 -7 -8 -8 -7 -7 -8 -8 -8 -8 -8 -8
-12 -11 -10 -10 -10 -10 -10 -10 -10 -10 -10 -10 -9 -9 -9 -8 -8 -7 -7 -7 -7 -7 -7 -7 -7 -7 -8 -7 -8 -8 -8 -8 -8 -8 -7 -8 -8 -7 -8 -8 -8 -8 -8 -8 -8
-13 -12 -12 -12 -11 -11 -11 -10 -11 -11 -11 -10 -10 -10 -9 -9 -8 -8 -8 -8 -8 -8 -8 -8 -8 -8 -8 -8 -8 -8 -8 -9 -8 -8 -8 -8 -9 -8 -8 -9 -8 -8 -8 -9 -9
-14 -13 -12 -13 -13 -12 -12 -12 -11 -11 -11 -11 -10 -10 -10 -10 -9 -9 -8 -8 -8 -8 -8 -8 -8 -8 -8 -7 -8 -8 -8 -9 -9 -8 -8 -8 -8 -8 -9 -8 -9 -9 -9 -9 -9
-14 -14 -14 -13 -14 -13 -13 -12 -12 -11 -11 -11 -11 -11 -10 -10 -9 -10 -9 -9 -8 -8 -8 -8 -8 -8 -8 -8 -8 -8 -8 -8 -8 -9 -8 -8 -9 -9 -9 -9 -9 -9 -9 -10 -10
-14 -14 -14 -14 -14 -14 -13 -12 -12 -12 -11 -11 -11 -11 -11 -10 -10 -9 -9 -9 -9 -9 -9 -9 -9 -9 -8 -9 -8 -8 -8 -9 -9 -9 -9 -9 -9 -9 -9 -10 -10 -10 -10 -10 -10
-14 -15 -15 -15 -14 -13 -13 -12 -12 -12 -12 -11 -11 -11 -11 -11 -11 -10 -10 -9 -9 -9 -10 -10 -9 -9 -9 -9 -9 -9 -9 -9 -9 -9 -9 -9 -9 -10 -10 -10 -10 -10 -10 -10 -10
-15 -15 -15 -15 -14 -14 -13 -13 -13 -13 -12 -12 -11 -12 -12 -11 -11 -11 -10 -10 -10 -10 -10 -10 -10 -10 -9 -9 -9 -9 -9 -9 -10 -10 -10 -10 -10 -10 -10 -10 -10 -10 -10 -11 -11
-15 -15 -15 -15 -14 -14 -14 -13 -14 -14 -13 -12 -12 -12 -12 -12 -12 -12 -12 -11 -11 -11 -11 -10 -10 -10 -10 -10 -10 -9 -10 -10 -10 -10 -10 -10 -10 -10 -10 -10 -10 -10 -11 -11 -11
-15 -15 -15 -15 -15 -14 -14 -14 -14 -14 -13 -13 -12 -12 -12 -11 -12 -11 -12 -12 -12 -12 -11 -11 -11 -11 -10 -10 -10 -10 -10 -11 -10 -10 -10 -11 -10 -10 -10 -11 -11 -11 -11 -11 -12
-15 -16 -15 -15 -15 -14 -14 -14 -14 -14 -13 -13 -12 -12 -12 -12 -12 -12 -12 -12 -12 -11 -11 -11 -11 -11 -11 -11 -11 -11 -11 -11 -10 -11 -10 -11 -11 -11 -11 -11 -11 -11 -11 -12 -12
-16 -16 -16 -15 -15 -15 -14 -14 -14 -13 -13 -13 -13 -12 -12 -12 -12 -12 -12 -12 -11 -11 -11 -11 -11 -11 -11 -11 -11 -11 -11 -11 -11 -11 -11 -11 -11 -11 -11 -11 -11 -11 -11 -11 -11
-16 -15 -16 -15 -15 -15 -15 -14 -14 -14 -14 -13 -13 -13 -13 -13 -13 -12 -12 -12 -12 -12 -12 -12 -12 -12 -12 -11 -12 -11 -11 -11 -11 -11 -11 -11 -11 -11 -11 -11 -11 -11 -11 -11 -11
-16 -15 -16 -16 -15 -15 -15 -14 -14 -14 -14 -14 -13 -13 -13 -13 -13 -13 -13 -13 -12 -12 -12 -12 -12 -12 -12 -12 -12 -12 -11 -11 -11 -11 -11 -11 -11 -11 -11 -11 -11 -11 -11 -11 -11
-16 -16 -15 -16 -15 -15 -14 -14 -14 -14 -14 -14 -14 -13 -13 -13 -13 -13 -13 -13 -13 -13 -12 -12 -12 -12 -12 -12 -12 -12 -12 -12 -12 -11 -11 -11 -11 -11 -12 -12 -12 -12 -12 -12 -12
-16 -16 -15 -15 -15 -15 -14 -14 -15 -15 -14 -14 -14 -14 -14 -14 -14 -14 -13 -13 -13 -13 -13 -13 -12 -12 -12 -12 -12 -12 -12 -12 -12 -12 -12 -11 -11 -11 -12 -12 -12 -12 -12 -12 -12
-16 -15 -15 -15 -15 -14 -14 -15 -15 -15 -15 -14 -14 -14 -14 -14 -14 -14 -14 -14 -14 -13 -13 -13 -13 -13 -13 -13 -13 -13 -13 -12 -12 -12 -12 -12 -11 -12 -12 -12 -12 -12 -12 -12 -12
-17 -16 -15 -15 -15 -14 -14 -15 -16 -16 -15 -15 -15 -15 -15 -15 -14 -14 -14 -14 -14 -14 -14 -14 -13 -13 -13 -13 -13 -13 -13 -13 -12 -12 -12 -13 -12 -13 -12 -13 -13 -12 -12 -12 -13
-17 -16 -16 -15 -15 -14 -14 -15 -15 -15 -16 -15 -15 -15 -15 -15 -15 -15 -15 -14 -14 -14 -14 -14 -14 -14 -14 -13 -13 -13 -13 -13 -13 -13 -13 -13 -13 -13 -13 -12 -13 -13 -12 -13 -13
-17 -16 -16 -15 -15 -15 -15 -15 -15 -15 -15 -15 -15 -15 -15 -15 -15 -15 -15 -15 -15 -15 -14 -14 -14 -14 -14 -14 -14 -14 -13 -13 -13 -13 -13 -13 -13 -14 -14 -13 -13 -12 -13 -13 -13
-17 -17 -17 -16 -16 -16 -16 -15 -15 -15 -15 -15 -15 -16 -16 -15 -15 -15 -15 -15 -15 -15 -15 -15 -14 -14 -14 -14 -14 -14 -14 -14 -14 -14 -13 -14 -13 -13 -13 -14 -13 -13 -13 -14 -14
-17 -17 -17 -17 -16 -16 -15 -16 -16 -16 -16 -16 -15 -15 -15 -16 -15 -15 -15 -15 -15 -15 -15 -15 -15 -15 -15 -15 -14 -14 -14 -15 -15 -14 -14 -14 -14 -14 -13 -14 -14 -13 -14 -14 -14
Height
5816 5819 5822 5827 5833 5836 5840 5845 5850 5854 5857 5859 5861 5863 5864 5865 5867 5869 5871 5873 5872 5873 5873 5876 5877 5877 5877 5877 5877 5878 5878 5878 5876 5875 5875 5875 5876 5874 5873 5872 5872 5871 5871 5870 5870
5809 5814 5814 5820 5825 5829 5832 5838 5843 5848 5851 5854 5856 5859 5859 5861 5864 5866 5867 5869 5870 5870 5870 5871 5873 5874 5875 5875 5875 5875 5876 5876 5875 5874 5872 5873 5872 5874 5872 5871 5870 5869 5868 5867 5866
5803 5808 5810 5814 5817 5821 5825 5830 5836 5841 5845 5848 5851 5854 5856 5857 5860 5862 5863 5864 5866 5867 5867 5867 5869 5870 5871 5872 5873 5872 5872 5874 5872 5873 5870 5869 5868 5869 5870 5869 5867 5866 5865 5865 5864
5795 5800 5805 5808 5810 5814 5816 5823 5829 5834 5839 5842 5846 5849 5851 5853 5856 5858 5859 5861 5862 5863 5864 5864 5865 5866 5867 5868 5869 5869 5868 5868 5869 5869 5869 5868 5867 5867 5866 5867 5866 5863 5861 5861 5860
5790 5794 5798 5800 5803 5808 5812 5817 5822 5827 5832 5836 5839 5843 5846 5849 5851 5853 5856 5857 5859 5860 5861 5862 5861 5861 5863 5864 5865 5865 5865 5865 5866 5866 5865 5865 5864 5863 5863 5862 5862 5860 5858 5857 5857
5787 5789 5792 5794 5797 5802 5808 5812 5815 5820 5825 5829 5833 5837 5841 5844 5846 5848 5851 5853 5855 5856 5857 5858 5858 5858 5858 5859 5860 5860 5859 5859 5861 5862 5862 5860 5860 5861 5859 5858 5858 5856 5854 5854 5853
5781 5783 5785 5786 5791 5796 5801 5806 5809 5814 5818 5822 5827 5831 5835 5837 5841 5844 5846 5848 5850 5852 5853 5854 5855 5855 5854 5855 5855 5856 5854 5855 5854 5856 5857 5854 5854 5856 5854 5853 5852 5851 5850 5848 5847
5775 5777 5777 5780 5785 5791 5796 5799 5804 5809 5814 5818 5822 5826 5829 5830 5835 5837 5840 5843 5845 5847 5849 5849 5850 5851 5850 5850 5851 5851 5850 5848 5849 5849 5852 5851 5846 5851 5850 5847 5846 5845 5844 5844 5843
5769 5772 5774 5776 5781 5786 5790 5793 5798 5804 5809 5813 5817 5821 5823 5824 5829 5832 5835 5838 5841 5842 5844 5845 5846 5846 5847 5847 5847 5847 5845 5844 5842 5845 5846 5846 5842 5844 5844 5842 5840 5839 5838 5838 5838
5766 5769 5770 5774 5778 5783 5788 5791 5795 5800 5804 5808 5811 5815 5817 5820 5822 5827 5830 5833 5835 5837 5839 5840 5841 5842 5843 5843 5843 5843 5841 5840 5840 5841 5840 5840 5838 5838 5838 5837 5836 5835 5834 5834 5833
5763 5765 5768 5771 5776 5779 5785 5788 5792 5796 5798 5802 5804 5807 5811 5814 5817 5821 5824 5827 5830 5832 5833 5835 5836 5837 5840 5838 5839 5837 5836 5835 5836 5836 5835 5836 5834 5833 5833 5832 5832 5831 5831 5831 5830
5757 5760 5763 5768 5772 5776 5780 5782 5785 5789 5791 5794 5798 5802 5805 5807 5812 5815 5819 5822 5824 5827 5828 5831 5831 5833 5834 5834 5834 5832 5831 5831 5830 5831 5831 5831 5830 5829 5829 5829 5828 5828 5828 5828 5827
5752 5756 5760 5764 5769 5772 5774 5777 5779 5781 5785 5788 5791 5796 5798 5801 5806 5811 5814 5816 5819 5822 5823 5825 5826 5827 5828 5829 5828 5826 5827 5827 5827 5827 5827 5827 5827 5826 5826 5825 5824 5824 5824 5823 5822
5745 5749 5754 5759 5766 5768 5770 5772 5773 5776 5780 5784 5786 5789 5792 5796 5801 5804 5808 5813 5815 5816 5818 5820 5822 5822 5823 5824 5822 5821 5823 5823 5823 5824 5824 5825 5825 5823 5823 5822 5820 5819 5819 5818 5817
5738 5743 5748 5754 5758 5761 5764 5766 5770 5773 5776 5781 5782 5785 5789 5793 5798 5800 5803 5806 5809 5811 5815 5816 5816 5817 5817 5818 5818 5818 5818 5819 5819 5820 5821 5820 5821 5819 5819 5818 5815 5814 5813 5812 5811
5730 5736 5742 5747 5751 5755 5759 5762 5765 5770 5771 5776 5777 5781 5785 5789 5793 5795 5799 5802 5805 5807 5809 5808 5810 5811 5811 5812 5813 5814 5815 5814 5815 5815 5817 5816 5817 5816 5815 5813 5810 5808 5806 5805 5803
5724 5730 5737 5741 5745 5749 5752 5755 5759 5762 5769 5772 5774 5777 5780 5785 5788 5790 5794 5798 5800 5802 5803 5803 5804 5805 5806 5808 5809 5810 5810 5810 5811 5811 5812 5811 5811 5811 5810 5807 5805 5802 5799 5798 5796
5716 5722 5728 5732 5736 5741 5745 5749 5752 5759 5763 5767 5770 5773 5776 5780 5784 5787 5790 5792 5794 5795 5797 5798 5800 5800 5801 5803 5804 5805 5806 5806 5805 5806 5806 5806 5806 5805 5803 5800 5798 5795 5793 5791 5790
5708 5714 5720 5726 5730 5735 5740 5742 5750 5755 5759 5763 5766 5769 5772 5776 5780 5781 5784 5786 5788 5790 5792 5793 5795 5795 5796 5798 5800 5800 5800 5800 5799 5799 5800 5800 5801 5799 5797 5794 5791 5789 5788 5786 5784
5699 5704 5712 5717 5723 5728 5733 5738 5744 5749 5753 5757 5760 5764 5767 5771 5774 5776 5778 5781 5783 5785 5786 5789 5790 5791 5792 5793 5794 5793 5795 5794 5792 5792 5793 5794 5794 5792 5789 5787 5784 5782 5781 5779 5778
5688 5695 5702 5709 5715 5721 5726 5733 5739 5743 5747 5751 5754 5758 5761 5764 5769 5771 5773 5776 5778 5779 5781 5783 5784 5787 5787 5788 5788 5788 5788 5787 5786 5786 5784 5785 5788 5786 5781 5778 5776 5774 5773 5772 5771
5679 5688 5695 5700 5708 5714 5720 5728 5733 5736 5741 5745 5748 5752 5755 5759 5763 5764 5768 5771 5773 5774 5775 5777 5778 5781 5782 5781 5781 5781 5782 5780 5779 5780 5779 5777 5782 5777 5774 5770 5768 5767 5765 5764 5763
5670 5679 5683 5692 5700 5707 5714 5720 5725 5730 5734 5738 5742 5745 5749 5752 5755 5758 5761 5764 5766 5767 5768 5769 5770 5774 5775 5776 5775 5775 5775 5775 5773 5772 5774 5770 5775 5769 5766 5762 5759 5758 5757 5756 5755
5660 5669 5675 5684 5693 5700 5705 5711 5716 5721 5725 5728 5734 5738 5742 5745 5748 5751 5755 5757 5759 5760 5761 5762 5763 5766 5769 5768 5768 5768 5768 5768 5767 5765 5764 5766 5764 5762 5758 5755 5751 5750 5749 5747 5746
5651 5660 5670 5678 5687 5694 5697 5702 5705 5712 5717 5721 5726 5731 5735 5738 5741 5743 5746 5749 5751 5752 5753 5754 5756 5759 5760 5759 5759 5760 5761 5761 5760 5758 5753 5759 5755 5755 5749 5746 5742 5741 5740 5738 5737
5645 5654 5663 5670 5676 5681 5685 5694 5699 5702 5707 5712 5717 5721 5724 5729 5732 5734 5736 5740 5743 5745 5745 5747 5748 5750 5752 5751 5750 5751 5753 5753 5751 5750 5745 5744 5747 5742 5742 5738 5735 5732 5730 5729 5727
5637 5646 5654 5659 5665 5670 5680 5687 5692 5693 5698 5704 5708 5711 5716 5721 5723 5726 5729 5732 5734 5736 5738 5739 5740 5741 5743 5743 5742 5741 5747 5744 5742 5740 5737 5735 5734 5732 5731 5729 5726 5723 5721 5718 5716
Wind_Speed
37 26 39 42 43 48 46 40 36 33 29 26 25 23 21 21 21 18 16 16 15 14 15 15 13 12 10 10 10 10 10 8 7 6 6 5 8 4 6 5 3 7 10 16 19
45 31 26 39 44 50 47 43 38 35 32 29 27 26 24 22 24 21 18 18 18 18 18 17 17 16 14 13 11 13 12 11 9 7 8 6 6 7 8 6 5 8 10 13 16
34 31 29 30 44 55 45 43 40 36 33 31 29 28 26 25 25 24 21 19 19 18 20 19 19 18 18 18 16 15 15 14 16 12 10 10 11 8 8 8 10 10 11 13 16
29 29 38 38 40 52 42 42 40 36 33 31 30 29 28 28 27 27 25 22 19 17 19 20 19 20 20 20 20 20 18 18 18 16 15 14 15 13 12 10 11 13 16 15 15
30 35 38 37 42 42 43 44 41 35 32 33 32 31 30 28 28 28 27 24 21 20 19 19 19 20 21 21 21 23 24 22 21 20 21 17 17 16 16 16 14 14 17 18 17
27 42 43 40 36 37 34 37 36 33 33 33 34 33 31 29 29 27 27 26 24 23 22 20 20 19 20 20 21 23 26 25 25 24 24 24 22 18 19 19 18 20 20 20 22
31 36 46 36 35 33 35 31 25 25 24 25 32 33 32 32 29 27 28 28 26 24 22 21 21 20 21 20 20 22 25 26 26 26 25 27 27 22 22 22 23 23 23 24 24
24 27 22 22 26 27 25 28 25 24 23 25 28 30 34 36 35 27 29 28 26 24 23 22 22 22 21 21 19 21 23 26 26 27 25 27 30 23 23 25 26 24 23 22 22
16 20 21 16 16 17 21 21 23 26 26 27 29 30 29 31 32 31 28 28 26 25 26 23 21 22 22 19 19 24 23 24 27 25 25 24 29 24 22 24 25 24 21 20 18
21 22 20 21 16 18 22 25 27 29 29 29 28 31 31 29 28 30 32 28 29 28 26 22 20 24 21 19 21 24 23 23 25 22 23 22 23 21 20 21 20 19 18 17 17
24 20 22 19 21 22 22 25 27 28 32 31 30 31 31 27 27 29 29 31 30 28 24 22 20 22 17 20 26 26 24 23 21 20 21 18 18 17 16 16 17 18 18 17 18
29 22 21 23 24 22 25 22 28 28 30 34 33 34 33 35 28 26 28 28 27 26 23 21 21 18 20 27 29 25 21 21 20 17 18 14 14 14 16 18 19 18 18 19 19
32 26 25 27 27 24 25 25 25 26 25 27 31 39 38 31 32 27 25 24 24 24 23 18 19 21 24 29 24 21 20 20 18 15 15 13 13 14 16 17 19 21 20 19 21
36 31 28 27 27 26 27 27 22 23 24 23 22 24 24 24 25 29 30 28 26 22 22 22 27 26 26 27 20 18 16 17 16 14 15 14 13 14 16 18 22 24 24 24 25
35 33 30 28 28 26 27 25 25 22 22 23 20 22 20 23 20 23 22 24 22 26 25 23 24 23 24 21 18 16 16 17 17 17 16 16 16 14 17 21 26 28 29 29 28
36 32 31 30 29 27 28 28 25 25 23 19 22 22 23 24 25 24 21 21 21 22 21 22 23 23 22 18 17 16 18 19 19 18 17 17 16 16 20 24 28 31 33 30 29
37 34 33 32 31 30 28 29 30 28 22 22 18 23 24 22 22 22 22 23 24 23 23 22 18 18 18 17 17 17 19 20 20 19 19 19 19 19 23 27 31 33 30 28 29
40 38 35 33 31 30 29 31 32 25 26 22 25 21 24 24 23 23 23 23 23 22 22 20 18 16 18 18 18 19 21 22 23 21 20 20 22 24 26 28 31 29 26 25 26
44 43 39 36 34 32 33 34 29 26 27 27 23 25 23 23 22 20 19 19 19 20 19 20 20 20 20 20 20 21 23 24 26 24 22 22 23 26 28 29 32 26 23 24 26
44 43 42 40 37 36 36 34 30 28 27 27 27 27 23 24 24 21 20 21 20 21 22 23 24 22 21 22 24 25 24 26 27 28 25 24 24 27 30 32 32 29 27 27 27
51 48 45 43 41 40 38 35 30 28 27 28 30 28 27 25 26 23 22 19 21 25 25 26 26 24 25 26 26 26 26 27 29 29 30 28 24 27 32 35 32 31 32 31 28
49 48 48 48 43 41 38 32 29 30 31 31 31 30 30 29 27 26 24 26 23 25 26 28 28 26 27 27 27 29 28 29 31 31 31 31 25 28 33 33 28 29 34 34 30
51 49 51 50 45 39 39 35 32 33 34 34 33 32 31 31 30 29 28 27 28 28 30 30 31 28 28 28 29 31 30 31 33 34 31 34 28 30 32 32 33 34 37 35 32
53 52 52 50 46 42 41 40 38 36 36 37 36 36 35 34 32 32 30 29 29 31 32 33 34 31 30 33 32 31 32 33 35 35 35 31 31 29 33 36 38 39 37 36 35
52 50 48 49 43 46 46 46 43 41 38 37 38 37 33 33 35 36 33 33 34 34 35 37 36 34 32 34 34 35 32 32 34 35 39 32 34 30 31 37 43 41 39 38 39
53 48 48 43 47 42 45 48 46 42 42 39 35 33 34 36 36 36 39 37 34 33 34 36 37 35 33 33 34 35 33 36 38 38 40 40 36 39 37 40 42 42 42 41 41
50 46 46 49 52 47 43 45 44 41 39 37 40 38 37 36 36 37 36 34 34 34 34 35 35 35 36 35 38 42 33 37 40 40 42 42 41 43 41 42 41 41 41 43 43
Wind_Direction
230 238 223 227 227 218 220 220 224 228 229 232 234 233 236 233 236 242 251 246 243 247 248 255 264 269 274 280 291 299 309 317 323 328 334 329 321 303 313 324 329 264 277 272 268
234 245 230 226 225 219 213 216 220 227 229 228 229 231 232 233 233 236 242 249 252 255 251 251 260 268 273 277 279 285 292 301 298 302 305 315 309 318 312 317 285 276 268 272 278
241 236 234 229 229 216 208 213 217 220 222 223 226 230 232 232 232 235 240 246 257 255 251 253 258 262 267 273 277 279 285 286 286 280 279 287 291 298 296 313 289 287 279 271 276
226 239 239 228 226 220 200 208 212 213 218 221 224 227 230 231 237 235 238 246 252 257 257 258 259 262 263 267 272 271 274 277 279 280 276 275 281 290 298 290 287 287 285 282 279
228 231 228 224 218 217 205 208 208 209 214 221 221 225 230 233 237 240 240 245 251 256 262 263 265 265 266 267 269 273 275 274 277 278 278 277 275 282 295 291 290 284 278 282 286
226 222 207 200 198 205 199 200 202 206 213 218 222 224 228 237 239 240 242 244 250 253 260 261 267 270 274 274 272 272 274 274 276 280 281 283 281 285 287 291 287 283 282 280 284
236 218 206 192 194 198 200 204 206 211 216 222 229 227 228 238 240 243 243 244 249 255 258 258 264 272 278 280 279 279 276 276 275 274 276 278 279 282 286 289 285 282 284 285 284
223 221 203 196 198 201 207 207 207 218 225 229 233 233 234 235 238 241 243 244 246 251 257 260 264 272 276 280 283 283 280 278 277 274 274 276 280 284 287 286 286 287 284 288 290
225 236 215 196 204 221 231 221 224 227 229 234 235 232 234 237 237 238 244 243 248 252 253 257 266 272 276 280 290 285 283 282 279 276 274 272 276 285 284 283 285 288 294 295 296
229 234 232 228 214 219 225 224 226 230 229 231 230 231 232 234 235 238 239 247 245 248 247 254 264 270 270 276 285 286 285 283 283 281 276 276 276 281 281 280 285 290 293 300 301
229 228 235 227 227 225 226 223 223 227 228 227 224 225 227 231 231 235 236 239 244 245 249 254 258 262 264 288 284 291 288 280 278 278 275 273 273 277 277 281 284 286 294 298 301
228 229 229 229 232 228 224 225 226 224 228 229 230 231 232 233 233 236 234 236 240 244 249 252 250 255 271 283 283 282 278 273 272 267 266 265 264 272 277 280 287 293 298 303 299
225 223 227 231 232 230 226 225 223 213 224 231 232 235 239 234 225 231 233 237 243 246 247 239 246 262 271 279 279 273 274 271 266 259 256 258 266 271 276 284 289 293 299 298 295
227 225 227 229 232 231 230 229 220 217 218 228 224 226 228 225 228 232 233 238 242 246 246 251 259 260 267 276 269 264 261 261 258 258 262 261 258 264 275 283 288 292 296 293 290
222 216 225 231 232 232 230 229 226 223 222 223 220 224 224 223 216 221 228 236 238 238 244 256 260 269 274 264 263 260 259 255 257 259 258 263 263 269 281 287 291 293 293 291 290
215 219 223 230 230 232 229 227 230 223 219 223 219 219 222 218 221 229 227 225 232 245 259 268 264 263 260 258 257 259 260 262 261 261 260 259 263 274 285 289 292 292 294 293 287
225 214 220 224 229 231 228 227 231 226 222 221 220 215 215 215 216 224 229 232 241 254 260 262 254 252 255 258 259 263 267 265 263 266 266 263 270 283 290 293 293 295 291 285 283
221 219 218 223 228 234 228 228 227 222 223 221 220 219 218 222 225 233 240 243 246 245 244 247 246 250 259 261 263 267 268 269 270 267 263 267 276 289 295 296 298 296 288 282 278
215 217 214 221 225 230 228 225 224 224 225 223 219 217 216 218 221 222 229 234 236 242 246 250 256 256 258 261 266 267 269 270 272 271 268 267 279 292 296 299 298 287 286 284 280
214 215 216 218 222 226 227 225 226 225 225 225 225 222 219 226 230 233 235 240 241 242 246 251 251 251 257 263 268 269 272 273 273 275 271 272 281 294 298 299 294 283 287 288 284
212 218 211 215 220 223 224 225 228 226 227 227 229 228 228 232 235 238 238 245 246 247 251 251 251 252 261 267 269 271 273 274 274 276 277 277 286 294 299 299 287 278 282 284 282
221 215 213 213 218 223 223 227 226 227 226 229 230 231 232 234 238 240 242 248 250 250 251 255 258 259 262 267 272 275 275 274 274 276 278 284 291 298 301 296 281 276 283 287 285
223 218 218 213 215 221 226 226 226 229 231 230 233 233 234 236 239 242 246 251 256 259 256 255 259 262 265 268 271 276 277 277 276 277 279 283 297 295 299 287 280 282 285 285 281
218 219 219 218 217 219 220 225 225 227 230 234 235 238 239 242 244 247 250 252 255 256 257 256 257 262 267 273 274 276 277 278 278 280 280 281 288 293 297 287 279 283 285 283 279
220 223 220 223 224 224 225 223 224 227 230 234 238 238 245 248 249 252 254 253 255 256 257 257 259 262 264 270 273 273 280 284 283 281 279 284 284 294 293 285 282 286 285 281 282
225 224 224 229 224 227 234 230 231 230 229 233 240 240 241 244 247 248 252 253 255 256 257 258 260 261 262 266 271 275 281 284 287 288 283 284 287 286 290 290 285 281 282 283 284
228 232 230 231 232 238 234 238 233 234 235 235 239 241 241 243 246 247 251 254 255 256 257 258 262 264 263 264 270 275 283 282 282 283 284 286 290 290 290 288 281 279 280 282 284